Location: Passau
(48.5721°N, 13.4363°E)
Time: 12:06:29
(UTC+02:00)

ISS - Pass Details

Date: 26 September 2020
Orbit: 418 x 420 km, 51.6° (Epoch: 21 October)

Event Time Altitude Azimuth Distance (km) Brightness Sun altitude
Rises 20:14:28 0° 276° (W) 2,367 2.0 -13.9°
Reaches altitude 10° 20:16:37 10° 283° (WNW) 1,503 0.5 -14.2°
Maximum altitude 20:19:54 47° 359° (N) 564 -3.0 -14.7°
Enters shadow 20:21:34 25° 62° (ENE) 906 -2.5 -15.0°
